Date String (YYYY-MM-DD hh:mm:ss) UTC,Instrument flags,Ambient pressure (hPa),Sample flow (lpm),Bypass flow (lpm),Sample temperature (°C),Ambient temperature (°C),ASC tube jacket temperature (°C),LED temperature (°C),Box temperature (°C),Sample RH (%),Span deviation,Mass concentration (μg/m³),Mass concentration (μg/m³),Mass concentration (μg/m³)
DateTimeUTC,F1_M11,P_M11,Q1_M11,Q2_M11,T1_M11,T2_M11,T3_M11,T4_M11,T5_M11,U1_M11,ZSPAN_M11,X0_M11,X2_M11,X1_M11
2022-12-27 21:00:00,,0809.9,5.00,0.00,24.7,23.5,00.0,33.5,26.6,08.7,0000.0,0002.48,0000.51,0000.27
2022-12-27 21:01:00,,0810.1,5.00,0.00,24.7,23.6,00.0,33.5,26.6,08.7,0000.0,0002.42,0000.48,0000.26
2022-12-27 21:02:00,,0810.1,5.01,0.00,24.7,23.6,00.0,33.5,26.6,09.0,0000.0,0002.55,0000.46,0000.24
2022-12-27 21:03:00,,0809.9,5.00,0.00,24.7,23.5,00.0,33.5,26.6,09.1,0000.0,0001.59,0000.42,0000.23
2022-12-27 21:04:00,,0809.8,5.00,0.00,24.7,23.5,00.0,33.5,26.6,08.6,0000.0,0001.09,0000.36,0000.21
2022-12-27 21:05:00,,0809.7,5.00,0.00,24.8,23.5,00.0,33.6,26.7,08.6,0000.0,0001.06,0000.35,0000.20
2022-12-27 21:06:00,,0809.6,5.00,0.00,24.8,23.5,00.0,33.6,26.7,08.4,0000.0,0000.92,0000.31,0000.19
2022-12-27 21:07:00,,0809.7,5.00,0.00,24.8,23.5,00.0,33.6,26.6,09.2,0000.0,0000.88,0000.29,0000.19
2022-12-27 21:08:00,,0809.7,5.00,0.00,24.8,23.5,00.0,33.6,26.7,09.7,0000.0,0000.88,0000.29,0000.18
2022-12-27 21:09:00,,0809.6,4.99,0.00,24.8,23.6,00.0,33.6,26.7,09.4,0000.0,0000.94,0000.28,0000.18
2022-12-27 21:10:00,,0809.5,5.00,0.00,24.8,23.5,00.0,33.6,26.7,09.2,0000.0,0000.88,0000.27,0000.18
2022-12-27 21:11:00,,0809.5,4.99,0.00,24.8,23.6,00.0,33.6,26.7,08.9,0000.0,0000.91,0000.28,0000.19
2022-12-27 21:12:00,,0809.4,5.00,0.00,24.8,23.6,00.0,33.6,26.7,08.8,0000.0,0001.03,0000.32,0000.19
2022-12-27 21:13:00,,0809.4,4.99,0.00,24.8,23.6,00.0,33.6,26.7,08.8,0000.0,0000.97,0000.33,0000.19
2022-12-27 21:14:00,,0809.6,5.00,0.00,24.8,23.6,00.0,33.6,26.7,09.0,0000.0,0000.84,0000.36,0000.19
2022-12-27 21:15:00,,0809.4,4.99,0.00,24.8,23.7,00.0,33.6,26.7,09.2,0000.0,0000.85,0000.38,0000.20
2022-12-27 21:16:00,,0809.5,4.99,0.00,24.8,23.7,00.0,33.6,26.7,09.4,0000.0,0000.96,0000.39,0000.20
2022-12-27 21:17:00,,0809.4,5.00,0.00,24.8,23.7,00.0,33.7,26.7,09.0,0000.0,0001.03,0000.41,0000.20
2022-12-27 21:18:00,,0809.3,5.01,0.00,24.8,23.7,00.0,33.7,26.7,09.1,0000.0,0001.11,0000.41,0000.20
2022-12-27 21:19:00,,0809.2,5.01,0.00,24.9,23.7,00.0,33.7,26.7,09.1,0000.0,0001.71,0000.39,0000.19
2022-12-27 21:20:00,,0809.1,5.00,0.00,24.8,23.6,00.0,33.7,26.7,09.1,0000.0,0001.63,0000.39,0000.19
2022-12-27 21:21:00,,0809.3,5.00,0.00,24.9,23.5,00.0,33.7,26.7,09.6,0000.0,0001.60,0000.38,0000.19
2022-12-27 21:22:00,,0809.3,5.00,0.00,24.9,23.6,00.0,33.7,26.7,09.2,0000.0,0001.80,0000.43,0000.20
2022-12-27 21:23:00,,0809.3,5.00,0.00,24.9,23.6,00.0,33.7,26.7,09.2,0000.0,0001.71,0000.41,0000.20
2022-12-27 21:24:00,,0809.4,5.00,0.00,24.9,23.6,00.0,33.7,26.7,10.1,0000.0,0001.73,0000.42,0000.21
2022-12-27 21:25:00,,0809.3,5.00,0.00,24.8,23.5,00.0,33.7,26.7,09.4,0000.0,0001.78,0000.44,0000.22
2022-12-27 21:26:00,,0809.2,5.00,0.00,24.8,23.4,00.0,33.7,26.7,08.7,0000.0,0001.76,0000.43,0000.21
2022-12-27 21:27:00,,0809.2,5.00,0.00,24.8,23.4,00.0,33.7,26.7,08.9,0000.0,0001.84,0000.44,0000.21
2022-12-27 21:28:00,,0809.2,5.00,0.00,24.8,23.5,00.0,33.7,26.7,09.2,0000.0,0001.76,0000.42,0000.21
2022-12-27 21:29:00,,0809.2,5.00,0.00,24.8,23.5,00.0,33.7,26.7,09.2,0000.0,0001.66,0000.44,0000.21
2022-12-27 21:30:00,,0809.2,5.00,0.00,24.8,23.6,00.0,33.7,26.7,09.4,0000.0,0001.09,0000.45,0000.21
2022-12-27 21:31:00,,0809.2,5.00,0.00,24.8,23.5,00.0,33.7,26.7,09.4,0000.0,0001.07,0000.44,0000.21
2022-12-27 21:32:00,,0809.2,5.00,0.00,24.8,23.4,00.0,33.7,26.6,09.1,0000.0,0001.22,0000.45,0000.21
2022-12-27 21:33:00,,0809.3,5.00,0.00,24.8,23.4,00.0,33.7,26.7,09.4,0000.0,0001.10,0000.43,0000.21
2022-12-27 21:34:00,,0809.3,5.00,0.00,24.8,23.5,00.0,33.7,26.7,09.4,0000.0,0001.09,0000.42,0000.20
2022-12-27 21:35:00,,0809.2,5.00,0.00,24.8,23.5,00.0,33.7,26.7,08.9,0000.0,0001.06,0000.40,0000.19
2022-12-27 21:36:00,,0809.2,5.00,0.00,24.8,23.5,00.0,33.7,26.7,08.8,0000.0,0000.99,0000.34,0000.18
2022-12-27 21:37:00,,0809.4,5.01,0.00,24.8,23.5,00.0,33.7,26.7,08.8,0000.0,0000.94,0000.32,0000.18
2022-12-27 21:38:00,,0809.4,4.99,0.00,24.8,23.6,00.0,33.7,26.7,09.1,0000.0,0000.74,0000.29,0000.18
2022-12-27 21:39:00,,0809.4,5.00,0.00,24.8,23.6,00.0,33.7,26.7,09.3,0000.0,0000.74,0000.29,0000.17
2022-12-27 21:40:00,,0809.3,4.99,0.00,24.9,23.7,00.0,33.7,26.7,09.4,0000.0,0000.69,0000.27,0000.18
2022-12-27 21:41:00,,0809.2,5.00,0.00,24.9,23.7,00.0,33.7,26.8,09.1,0000.0,0000.68,0000.27,0000.18
2022-12-27 21:42:00,,0809.2,5.00,0.00,24.9,23.8,00.0,33.7,26.8,09.0,0000.0,0000.72,0000.28,0000.18
2022-12-27 21:43:00,,0809.2,5.00,0.00,24.9,23.8,00.0,33.7,26.8,09.4,0000.0,0000.68,0000.28,0000.18
2022-12-27 21:44:00,,0809.2,4.99,0.00,24.9,23.8,00.0,33.7,26.8,09.6,0000.0,0000.59,0000.25,0000.18
2022-12-27 21:45:00,,0809.2,5.00,0.00,24.9,23.8,00.0,33.8,26.8,10.1,0000.0,0000.65,0000.28,0000.18
2022-12-27 21:46:00,,0809.2,5.00,0.00,24.9,23.8,00.0,33.8,26.8,10.4,0000.0,0000.67,0000.31,0000.19
2022-12-27 21:47:00,,0809.3,5.00,0.00,24.9,23.8,00.0,33.8,26.8,10.5,0000.0,0000.65,0000.32,0000.21
2022-12-27 21:48:00,,0809.3,5.00,0.00,24.9,23.7,00.0,33.8,26.8,10.1,0000.0,0000.70,0000.34,0000.22
2022-12-27 21:49:00,,0809.2,5.00,0.00,25.0,23.7,00.0,33.8,26.8,10.1,0000.0,0000.81,0000.39,0000.23
2022-12-27 21:50:00,,0809.0,5.01,0.00,25.0,23.7,00.0,33.8,26.9,09.8,0000.0,0001.06,0000.43,0000.24
2022-12-27 21:51:00,,0809.1,5.00,0.00,25.0,23.7,00.0,33.8,26.9,09.8,0000.0,0001.48,0000.46,0000.25
2022-12-27 21:52:00,,0809.2,5.00,0.00,25.0,23.8,00.0,33.8,26.9,09.9,0000.0,0002.42,0000.49,0000.26
2022-12-27 21:53:00,,0809.3,5.00,0.00,25.0,23.9,00.0,33.8,26.9,09.4,0000.0,0002.52,0000.51,0000.26
2022-12-27 21:54:00,,0809.3,5.00,0.00,25.0,23.9,00.0,33.8,26.9,09.9,0000.0,0002.43,0000.49,0000.26
2022-12-27 21:55:00,,0809.3,5.00,0.00,25.0,23.9,00.0,33.8,26.9,09.9,0000.0,0002.52,0000.50,0000.27
2022-12-27 21:56:00,,0809.3,5.00,0.00,25.0,23.9,00.0,33.9,26.9,10.0,0000.0,0002.54,0000.51,0000.28
2022-12-27 21:57:00,,0809.3,5.00,0.00,25.0,23.9,00.0,33.9,26.9,09.7,0000.0,0002.63,0000.52,0000.27
2022-12-27 21:58:00,,0809.4,5.00,0.00,25.0,23.8,00.0,33.9,26.9,09.7,0000.0,0002.79,0000.54,0000.27
2022-12-27 21:59:00,,0809.4,5.00,0.00,25.0,23.8,00.0,33.9,26.9,09.7,0000.0,0002.88,0000.55,0000.27
